Skip Page Navigation
NASA JPL Caltech
NASA Logo - Jet Propulsion Laboratory + View the NASA Portal
+ Center for Near-Earth Object Studies
JPL Home Earth Solar System Stars & Galaxies Technology
JPL Solar System Dynamics
BODIES ORBITS EPHEMERIDES TOOLS PHYSICAL DATA DISCOVERY FAQ SITE MAP
JPL Small-Body Database Browser
Search: [ help ]  
101195 (1998 SV25)
Classification: Main-belt Asteroid          SPK-ID: 2101195
Ephemeris | Orbit Diagram | Orbital Elements | Mission Design | Physical Parameters | Discovery Circumstances ]

[ show orbit diagram ]
Orbital Elements at Epoch 2459200.5 (2020-Dec-17.0) TDB
Reference: JPL 22 (heliocentric ecliptic J2000)
 Element Value Uncertainty (1-sigma)   Units 
e .1760057890408298 4.1439e-08  
a 2.265507969595614 8.8726e-09 au
q 1.866765451828649 9.4053e-08 au
i 4.542437703739749 4.0365e-06 deg
node 68.32310651508803 5.5769e-05 deg
peri 262.1751933433695 5.701e-05 deg
M 216.0326789863866 1.2716e-05 deg
tp 2459698.590479566448
(2022-Apr-29.09047957)
4.5033e-05 TDB
period 1245.508851463352
3.41
7.3168e-06
2.003e-08
d
yr
n .2890384918397287 1.698e-09 deg/d
Q 2.664250487362577 1.0434e-08 au
  Orbit Determination Parameters
   # obs. used (total)      789  
   data-arc span      8202 days (22.46 yr)  
   first obs. used      1998-09-22  
   last obs. used      2021-03-07  
   planetary ephem.      DE441  
   SB-pert. ephem.      SB441-N16  
   condition code      0  
   norm. resid. RMS      .56673  
   source      ORB  
   producer      Otto Matic  
   solution date      2021-Apr-13 15:35:39  

Additional Information
 Earth MOID = .86064 au 
 Jupiter MOID = 2.6858 au 
 T_jup = 3.592 
[ show covariance matrix ]

Ephemeris | Orbit Diagram | Orbital Elements | Mission Design | Physical Parameters | Discovery Circumstances ]

Physical Parameter Table
Parameter Symbol Value Units Sigma Reference Notes
absolute magnitude H 16.00   n/a E2021B55  

101195 (1998 SV25)          Discovered 1998-Sep-22 by LONEOS at Anderson Mesa
Reference: 20051019/Numbers.arcLast Updated: 2005-10-26
Ephemeris | Orbit Diagram | Orbital Elements | Mission Design | Physical Parameters | Discovery Circumstances ]
ABOUT SSD CREDITS/AWARDS PRIVACY/COPYRIGHT GLOSSARY LINKS
FirstGov 2021-Apr-19 22:27 UT
(server date/time)  
NASA Home Page
Site Manager:   Ryan S. Park
Webmaster  Alan B. Chamberlin